PIA747 OPLA-OEMA

Flight info

Callsign PIA747
Flight time 4h 42m
Altitude 34000
Route MIMAL J112 MURLI G214 RK J173 SK J184 IDEBA J132 BIREX G214 PG J132 BIVIN R462 VUSET T500 MCT T506 TULBU G652 TOKRA/N0508F280 G652 KOBES L692 ALRIK/N0493F360 DCT ASMIS Y511 ELONU
Aircraft B77W/H-SDE1E2E3FGHIJ2J3J4J5M1RWXY/LB1D1

Departure

Time 2026-04-24 14:54
Airport Allama Iqbal International Airport (OPLA)

Arrival

Time 2026-04-24 19:36
Airport Prince Mohammad Bin Abdulaziz Airport (OEMA)
Time Latitude Longitude Altitude Speed Heading
2026-04-24 14:36 31.51886 74.40768 727 ft 0 kts 272°
2026-04-24 14:44 31.51886 74.40774 729 ft 3 kts 273°
2026-04-24 14:44 31.51882 74.40804 728 ft 4 kts 295°
2026-04-24 14:44 31.51867 74.40828 727 ft 4 kts 332°
2026-04-24 14:45 31.51844 74.40835 727 ft 1 kts 359°
2026-04-24 14:45 31.51843 74.40835 727 ft 0 kts 359°
2026-04-24 14:48 31.51851 74.40835 727 ft 5 kts 359°
2026-04-24 14:48 31.51922 74.40835 727 ft 16 kts 359°
2026-04-24 14:48 31.52044 74.40836 729 ft 18 kts
2026-04-24 14:49 31.52167 74.40838 730 ft 18 kts
2026-04-24 14:49 31.52290 74.40841 731 ft 18 kts
2026-04-24 14:49 31.52393 74.40805 731 ft 16 kts 301°
2026-04-24 14:49 31.52436 74.40690 731 ft 16 kts 325°
2026-04-24 14:50 31.52544 74.40674 732 ft 16 kts 360°
2026-04-24 14:50 31.52654 74.40675 731 ft 16 kts
2026-04-24 14:50 31.52764 74.40678 732 ft 16 kts
2026-04-24 14:50 31.52874 74.40679 729 ft 16 kts
2026-04-24 14:51 31.52983 74.40681 730 ft 16 kts
2026-04-24 14:51 31.53092 74.40683 730 ft 16 kts
2026-04-24 14:51 31.53202 74.40686 732 ft 16 kts
2026-04-24 14:51 31.53312 74.40688 731 ft 16 kts
2026-04-24 14:52 31.53422 74.40689 731 ft 16 kts 360°
2026-04-24 14:52 31.53531 74.40678 731 ft 16 kts 343°
2026-04-24 14:52 31.53623 74.40608 732 ft 16 kts 316°
2026-04-24 14:52 31.53636 74.40514 734 ft 10 kts 238°
2026-04-24 14:53 31.53585 74.40485 732 ft 6 kts 186°
2026-04-24 14:53 31.53547 74.40483 732 ft 18 kts 181°
2026-04-24 14:53 31.53199 74.40474 731 ft 87 kts 181°
2026-04-24 14:53 31.52350 74.40459 728 ft 153 kts 181°
2026-04-24 14:54 31.51102 74.40433 759 ft 199 kts 182°
2026-04-24 14:54 31.49735 74.40397 1269 ft 200 kts 182°
2026-04-24 14:54 31.48345 74.40356 1929 ft 200 kts 181°
2026-04-24 14:54 31.46947 74.40299 2458 ft 206 kts 182°
2026-04-24 14:55 31.45953 74.40266 2634 ft 215 kts 186°
2026-04-24 14:55 31.44162 74.39216 2785 ft 232 kts 236°
2026-04-24 14:55 31.43631 74.37405 2988 ft 244 kts 265°
2026-04-24 14:55 31.43403 74.35347 3301 ft 262 kts 262°
2026-04-24 14:56 31.43087 74.33218 3904 ft 268 kts 261°
2026-04-24 14:56 31.42707 74.31070 4597 ft 270 kts 259°
2026-04-24 14:56 31.42276 74.28914 5287 ft 275 kts 257°
2026-04-24 14:56 31.41833 74.26743 6140 ft 275 kts 258°
2026-04-24 14:57 31.41391 74.24560 6853 ft 277 kts 257°
2026-04-24 14:57 31.40926 74.22339 7434 ft 283 kts 257°
2026-04-24 14:57 31.40442 74.20093 8133 ft 285 kts 257°
2026-04-24 14:57 31.39949 74.17841 8864 ft 287 kts 257°
2026-04-24 14:58 31.39439 74.15567 9510 ft 292 kts 256°
2026-04-24 14:58 31.38907 74.13266 10210 ft 294 kts 256°
2026-04-24 14:58 31.38382 74.10875 10462 ft 315 kts 257°
2026-04-24 14:58 31.37816 74.08308 10634 ft 336 kts 256°
2026-04-24 14:59 31.37204 74.05535 10934 ft 369 kts 254°
2026-04-24 14:59 31.36420 74.02689 11345 ft 372 kts 255°
2026-04-24 14:59 31.35788 73.99708 11941 ft 382 kts 258°
2026-04-24 14:59 31.35166 73.96682 12789 ft 381 kts 254°
2026-04-24 15:00 31.33940 73.93928 13356 ft 390 kts 228°
2026-04-24 15:00 31.32057 73.91689 13876 ft 394 kts 229°
2026-04-24 15:00 31.30227 73.89287 14639 ft 397 kts 230°
2026-04-24 15:00 31.28378 73.86815 15711 ft 407 kts 231°
2026-04-24 15:01 31.26574 73.84285 16771 ft 405 kts 231°
2026-04-24 15:01 31.24738 73.81770 17444 ft 406 kts 231°
2026-04-24 15:01 31.22880 73.79225 17918 ft 415 kts 230°
2026-04-24 15:01 31.20965 73.76675 18528 ft 420 kts 230°
2026-04-24 15:02 31.19015 73.74107 19208 ft 424 kts 230°
2026-04-24 15:02 31.17717 73.72392 19681 ft 426 kts 230°
2026-04-24 15:02 31.15106 73.68946 20649 ft 430 kts 230°
2026-04-24 15:02 31.13126 73.66322 21322 ft 432 kts 230°
2026-04-24 15:03 31.11780 73.64529 21735 ft 435 kts 230°
2026-04-24 15:03 31.09126 73.60987 22497 ft 441 kts 230°
2026-04-24 15:03 31.07103 73.58288 23077 ft 444 kts 230°
2026-04-24 15:03 31.05061 73.55568 23646 ft 446 kts 231°
2026-04-24 15:04 31.03677 73.53721 24009 ft 449 kts 231°
2026-04-24 15:04 31.01614 73.50973 24497 ft 452 kts 231°
2026-04-24 15:04 30.99556 73.48246 24975 ft 455 kts 230°
2026-04-24 15:04 30.97465 73.45470 25467 ft 458 kts 230°
2026-04-24 15:05 30.95348 73.42667 25994 ft 460 kts 231°
2026-04-24 15:05 30.93224 73.39852 26476 ft 463 kts 230°
2026-04-24 15:05 30.91085 73.37026 26928 ft 466 kts 230°
2026-04-24 15:05 30.88936 73.34188 27373 ft 469 kts 230°
2026-04-24 15:06 30.86771 73.31322 27819 ft 472 kts 230°
2026-04-24 15:06 30.84590 73.28446 28282 ft 474 kts 230°
2026-04-24 15:06 30.82433 73.25599 28665 ft 476 kts 230°
2026-04-24 15:06 30.80238 73.22704 29015 ft 479 kts 230°
2026-04-24 15:07 30.78031 73.19791 29343 ft 481 kts 230°
2026-04-24 15:07 30.75810 73.16869 29635 ft 484 kts 230°
2026-04-24 15:07 30.73577 73.13929 30028 ft 484 kts 230°
2026-04-24 15:07 30.71353 73.11003 30515 ft 481 kts 230°
2026-04-24 15:08 30.69141 73.08100 30982 ft 479 kts 230°
2026-04-24 15:08 30.66927 73.05197 31401 ft 478 kts 231°
2026-04-24 15:08 30.64723 73.02305 31813 ft 477 kts 231°
2026-04-24 15:08 30.62522 72.99424 32194 ft 477 kts 231°
2026-04-24 15:09 30.60324 72.96545 32558 ft 476 kts 231°
2026-04-24 15:09 30.58129 72.93670 32906 ft 476 kts 231°
2026-04-24 15:09 30.55934 72.90797 33258 ft 475 kts 231°
2026-04-24 15:09 30.53743 72.87936 33602 ft 474 kts 231°
2026-04-24 15:10 30.51552 72.85073 33932 ft 474 kts 231°
2026-04-24 15:10 30.49363 72.82211 34245 ft 473 kts 231°
2026-04-24 15:10 30.47181 72.79361 34548 ft 473 kts 231°
2026-04-24 15:10 30.45024 72.76549 34872 ft 473 kts 231°
2026-04-24 15:11 30.42841 72.73706 35198 ft 471 kts 231°
2026-04-24 15:11 30.40659 72.70869 35466 ft 472 kts 231°
2026-04-24 15:11 30.38472 72.68027 35678 ft 473 kts 231°
2026-04-24 15:12 30.34068 72.62305 35803 ft 477 kts 231°
2026-04-24 15:12 30.27474 72.53753 35787 ft 471 kts 231°
2026-04-24 15:13 30.23103 72.48092 35787 ft 472 kts 231°
2026-04-24 15:13 30.18558 72.42621 35752 ft 475 kts 222°
2026-04-24 15:14 30.13172 72.38193 35796 ft 480 kts 217°
2026-04-24 15:14 30.07643 72.33840 35785 ft 482 kts 218°
2026-04-24 15:15 30.02140 72.29375 35791 ft 484 kts 219°
2026-04-24 15:15 29.96672 72.24824 35783 ft 485 kts 219°
2026-04-24 15:16 29.91191 72.20271 35770 ft 486 kts 219°
2026-04-24 15:16 29.85835 72.15631 35759 ft 481 kts 227°
2026-04-24 15:17 29.81386 72.09931 35789 ft 477 kts 233°
2026-04-24 15:17 29.77139 72.04062 35779 ft 476 kts 232°
2026-04-24 15:18 29.72819 71.98290 35788 ft 476 kts 232°
2026-04-24 15:18 29.68435 71.92564 35784 ft 477 kts 232°
2026-04-24 15:19 29.64032 71.86878 35767 ft 474 kts 231°
2026-04-24 15:19 29.59645 71.81186 35785 ft 476 kts 231°
2026-04-24 15:20 29.55180 71.75635 35803 ft 472 kts 231°
2026-04-24 15:20 29.50919 71.69855 35768 ft 475 kts 233°
2026-04-24 15:21 29.46536 71.64131 35773 ft 479 kts 231°
2026-04-24 15:21 29.42084 71.58466 35788 ft 483 kts 231°
2026-04-24 15:22 29.37596 71.52715 35768 ft 484 kts 232°
2026-04-24 15:23 29.30860 71.44050 35783 ft 485 kts 232°
2026-04-24 15:23 29.24079 71.35467 35772 ft 483 kts 231°
2026-04-24 15:25 29.13505 71.22263 35767 ft 481 kts 231°
2026-04-24 15:26 29.01493 71.07259 35788 ft 480 kts 231°
2026-04-24 15:27 28.87897 70.90356 35791 ft 485 kts 231°
2026-04-24 15:29 28.74157 70.73355 35791 ft 485 kts 231°
2026-04-24 15:31 28.58139 70.53585 35796 ft 487 kts 231°
2026-04-24 15:33 28.39653 70.30904 35801 ft 490 kts 232°
2026-04-24 15:33 28.34051 70.21391 35799 ft 479 kts 248°
2026-04-24 15:34 28.31150 70.14581 35800 ft 479 kts 249°
2026-04-24 15:35 28.23886 69.97537 35809 ft 480 kts 248°
2026-04-24 15:36 28.20938 69.90725 35806 ft 481 kts 248°
2026-04-24 15:36 28.16516 69.80513 35807 ft 481 kts 248°
2026-04-24 15:37 28.13571 69.73724 35799 ft 479 kts 248°
2026-04-24 15:37 28.10625 69.66965 35804 ft 478 kts 248°
2026-04-24 15:38 28.07685 69.60223 35806 ft 478 kts 248°
2026-04-24 15:38 28.04745 69.53465 35811 ft 479 kts 248°
2026-04-24 15:39 28.01811 69.46752 35818 ft 479 kts 248°
2026-04-24 15:39 27.98846 69.39982 35814 ft 480 kts 248°
2026-04-24 15:40 27.95878 69.33210 35809 ft 479 kts 247°
2026-04-24 15:40 27.92912 69.26455 35820 ft 481 kts 247°
2026-04-24 15:41 27.89924 69.19662 35810 ft 484 kts 247°
2026-04-24 15:41 27.86917 69.12833 35816 ft 485 kts 246°
2026-04-24 15:42 27.83900 69.06000 35818 ft 485 kts 246°
2026-04-24 15:42 27.80879 68.99185 35825 ft 485 kts 246°
2026-04-24 15:43 27.77877 68.92388 35836 ft 484 kts 246°
2026-04-24 15:43 27.74850 68.85569 35836 ft 484 kts 246°
2026-04-24 15:44 27.72243 68.78603 35834 ft 480 kts 255°
2026-04-24 15:44 27.70767 68.71350 35834 ft 476 kts 262°
2026-04-24 15:45 27.69616 68.63988 35847 ft 477 kts 262°
2026-04-24 15:45 27.68440 68.56606 35836 ft 477 kts 262°
2026-04-24 15:46 27.67251 68.49261 35848 ft 475 kts 261°
2026-04-24 15:46 27.66025 68.41917 35854 ft 476 kts 261°
2026-04-24 15:47 27.64820 68.34614 35846 ft 478 kts 261°
2026-04-24 15:47 27.63600 68.27244 35848 ft 478 kts 261°
2026-04-24 15:48 27.62363 68.19866 35843 ft 478 kts 261°
2026-04-24 15:48 27.61131 68.12493 35839 ft 478 kts 261°
2026-04-24 15:49 27.59895 68.05148 35829 ft 476 kts 261°
2026-04-24 15:49 27.58672 67.97814 35845 ft 477 kts 261°
2026-04-24 15:50 27.57433 67.90466 35842 ft 477 kts 261°
2026-04-24 15:50 27.56397 67.84352 35845 ft 478 kts 261°
2026-04-24 15:51 27.55148 67.76992 35854 ft 479 kts 261°
2026-04-24 15:51 27.53684 67.68417 35844 ft 479 kts 261°
2026-04-24 15:52 27.52629 67.62226 35854 ft 481 kts 261°
2026-04-24 15:52 27.51364 67.54880 35846 ft 480 kts 261°
2026-04-24 15:53 27.50093 67.47496 35841 ft 480 kts 261°
2026-04-24 15:53 27.48821 67.40118 35848 ft 478 kts 261°
2026-04-24 15:54 27.47548 67.32772 35851 ft 478 kts 261°
2026-04-24 15:54 27.46263 67.25397 35847 ft 479 kts 261°
2026-04-24 15:55 27.45042 67.18033 35851 ft 479 kts 262°
2026-04-24 15:55 27.43925 67.10629 35848 ft 480 kts 262°
2026-04-24 15:56 27.42817 67.03204 35855 ft 482 kts 262°
2026-04-24 15:56 27.41686 66.95761 35869 ft 483 kts 262°
2026-04-24 15:57 27.40539 66.88303 35857 ft 483 kts 262°
2026-04-24 15:57 27.39391 66.80888 35857 ft 484 kts 262°
2026-04-24 15:58 27.38222 66.73384 35860 ft 483 kts 262°
2026-04-24 15:58 27.37068 66.65986 35856 ft 483 kts 262°
2026-04-24 15:59 27.35906 66.58562 35879 ft 481 kts 262°
2026-04-24 15:59 27.34744 66.51129 35884 ft 481 kts 261°
2026-04-24 16:00 27.33575 66.43715 35864 ft 479 kts 261°
2026-04-24 16:00 27.32405 66.36328 35881 ft 480 kts 261°
2026-04-24 16:01 27.31232 66.28923 35867 ft 482 kts 261°
2026-04-24 16:01 27.30063 66.21556 35860 ft 483 kts 261°
2026-04-24 16:02 27.28873 66.14118 35881 ft 484 kts 261°
2026-04-24 16:02 27.27678 66.06654 35854 ft 485 kts 261°
2026-04-24 16:03 27.26480 65.99170 35848 ft 486 kts 261°
2026-04-24 16:03 27.25272 65.91705 35841 ft 485 kts 261°
2026-04-24 16:04 27.24074 65.84243 35839 ft 485 kts 261°
2026-04-24 16:04 27.22867 65.76859 35838 ft 482 kts 261°
2026-04-24 16:05 27.21036 65.65751 35836 ft 481 kts 261°
2026-04-24 16:06 27.19227 65.54691 35839 ft 479 kts 261°
2026-04-24 16:07 27.17410 65.43649 35855 ft 480 kts 261°
2026-04-24 16:07 27.15574 65.32532 35866 ft 483 kts 261°
2026-04-24 16:08 27.13726 65.21425 35869 ft 482 kts 261°
2026-04-24 16:09 27.11872 65.10384 35861 ft 481 kts 261°
2026-04-24 16:09 27.10629 65.02964 35866 ft 483 kts 261°
2026-04-24 16:11 27.07508 64.84474 35874 ft 479 kts 261°
2026-04-24 16:11 27.06252 64.77121 35870 ft 479 kts 261°
2026-04-24 16:12 27.04376 64.66139 35895 ft 477 kts 261°
2026-04-24 16:13 27.02493 64.55186 35880 ft 477 kts 261°
2026-04-24 16:14 26.99985 64.40621 35882 ft 478 kts 261°
2026-04-24 16:14 26.98078 64.29626 35880 ft 479 kts 261°
2026-04-24 16:15 26.96127 64.18647 35888 ft 480 kts 257°
2026-04-24 16:16 26.93468 64.11745 35892 ft 486 kts 241°
2026-04-24 16:16 26.91512 64.08648 35881 ft 489 kts 232°
2026-04-24 16:17 26.80116 63.94465 35883 ft 490 kts 231°
2026-04-24 16:18 26.71070 63.83057 35887 ft 489 kts 231°
2026-04-24 16:19 26.64322 63.74547 35888 ft 490 kts 231°
2026-04-24 16:20 26.57526 63.66000 35892 ft 491 kts 231°
2026-04-24 16:20 26.50692 63.57418 35886 ft 493 kts 231°
2026-04-24 16:21 26.43854 63.48854 35892 ft 491 kts 231°
2026-04-24 16:22 26.39293 63.43171 35890 ft 492 kts 230°
2026-04-24 16:22 26.32502 63.34679 35881 ft 490 kts 231°
2026-04-24 16:23 26.27971 63.29012 35892 ft 489 kts 231°
2026-04-24 16:24 26.21141 63.20535 35899 ft 490 kts 231°
2026-04-24 16:24 26.16598 63.14880 35889 ft 490 kts 231°
2026-04-24 16:25 26.12047 63.09224 35884 ft 489 kts 231°
2026-04-24 16:25 26.07530 63.03627 35887 ft 488 kts 231°
2026-04-24 16:26 26.00746 62.95225 35893 ft 485 kts 231°
2026-04-24 16:27 25.93980 62.86843 35899 ft 485 kts 231°
2026-04-24 16:27 25.89456 62.81263 35899 ft 488 kts 231°
2026-04-24 16:28 25.84889 62.75617 35908 ft 492 kts 231°
2026-04-24 16:28 25.78062 62.67164 35896 ft 491 kts 231°
2026-04-24 16:29 25.73499 62.61535 35908 ft 491 kts 231°
2026-04-24 16:30 25.64376 62.50317 35888 ft 488 kts 231°
2026-04-24 16:30 25.59835 62.44742 35904 ft 487 kts 231°
2026-04-24 16:31 25.55307 62.39192 35892 ft 485 kts 231°
2026-04-24 16:31 25.50794 62.33650 35900 ft 485 kts 231°
2026-04-24 16:32 25.46274 62.28118 35893 ft 484 kts 231°
2026-04-24 16:32 25.41743 62.22578 35902 ft 485 kts 231°
2026-04-24 16:33 25.37198 62.17026 35906 ft 487 kts 230°
2026-04-24 16:33 25.32640 62.11469 35902 ft 488 kts 230°
2026-04-24 16:34 25.28101 62.05943 35892 ft 488 kts 230°
2026-04-24 16:34 25.23526 62.00379 35901 ft 489 kts 231°
2026-04-24 16:35 25.18953 61.94821 35893 ft 489 kts 231°
2026-04-24 16:35 25.14380 61.89271 35901 ft 489 kts 231°
2026-04-24 16:36 25.09799 61.83709 35898 ft 489 kts 231°
2026-04-24 16:36 25.05799 61.77699 35900 ft 484 kts 242°
2026-04-24 16:37 25.02842 61.71064 35911 ft 481 kts 249°
2026-04-24 16:37 25.00627 61.65436 35903 ft 481 kts 249°
2026-04-24 16:38 24.97467 61.57579 35900 ft 483 kts 249°
2026-04-24 16:38 24.94725 61.50842 35918 ft 481 kts 249°
2026-04-24 16:39 24.92430 61.45202 35908 ft 482 kts 249°
2026-04-24 16:39 24.89739 61.38490 35909 ft 482 kts 249°
2026-04-24 16:40 24.87031 61.31706 35901 ft 484 kts 249°
2026-04-24 16:40 24.84313 61.24916 35899 ft 484 kts 249°
2026-04-24 16:41 24.81586 61.18136 35897 ft 483 kts 249°
2026-04-24 16:41 24.78858 61.11380 35895 ft 482 kts 249°
2026-04-24 16:42 24.76155 61.04668 35902 ft 481 kts 249°
2026-04-24 16:42 24.73453 60.97960 35892 ft 479 kts 249°
2026-04-24 16:43 24.70746 60.91263 35899 ft 480 kts 249°
2026-04-24 16:43 24.67919 60.84581 35904 ft 482 kts 248°
2026-04-24 16:44 24.65029 60.77944 35926 ft 481 kts 248°
2026-04-24 16:44 24.62167 60.71298 35920 ft 482 kts 248°
2026-04-24 16:45 24.59305 60.64634 35911 ft 482 kts 248°
2026-04-24 16:45 24.56426 60.57971 35895 ft 484 kts 248°
2026-04-24 16:46 24.53534 60.51310 35878 ft 483 kts 247°
2026-04-24 16:46 24.50621 60.44665 35894 ft 483 kts 248°
2026-04-24 16:47 24.47721 60.37987 35885 ft 485 kts 248°
2026-04-24 16:47 24.44818 60.31312 35879 ft 485 kts 248°
2026-04-24 16:48 24.41921 60.24679 35880 ft 484 kts 248°
2026-04-24 16:48 24.39011 60.18035 35881 ft 483 kts 248°
2026-04-24 16:49 24.36095 60.11404 35881 ft 481 kts 248°
2026-04-24 16:49 24.33194 60.04789 35887 ft 482 kts 248°
2026-04-24 16:50 24.30274 59.98142 35896 ft 483 kts 248°
2026-04-24 16:50 24.27370 59.91535 35867 ft 483 kts 248°
2026-04-24 16:51 24.24433 59.84880 35881 ft 485 kts 248°
2026-04-24 16:51 24.21493 59.78220 35880 ft 485 kts 248°
2026-04-24 16:52 24.18555 59.71558 35860 ft 485 kts 248°
2026-04-24 16:52 24.15633 59.64959 35880 ft 484 kts 247°
2026-04-24 16:53 24.12699 59.58337 35881 ft 483 kts 248°
2026-04-24 16:53 24.09772 59.51723 35858 ft 481 kts 248°
2026-04-24 16:54 24.06836 59.45142 35862 ft 481 kts 247°
2026-04-24 16:54 24.03900 59.38579 35870 ft 480 kts 247°
2026-04-24 16:55 24.00970 59.32018 35850 ft 479 kts 247°
2026-04-24 16:55 23.98059 59.25471 35851 ft 479 kts 247°
2026-04-24 16:56 23.95127 59.18912 35849 ft 480 kts 247°
2026-04-24 16:56 23.92239 59.12330 35861 ft 480 kts 250°
2026-04-24 16:57 23.89672 59.05644 35871 ft 480 kts 251°
2026-04-24 16:57 23.87127 58.98887 35856 ft 480 kts 251°
2026-04-24 16:58 23.83998 58.90626 35862 ft 480 kts 251°
2026-04-24 16:58 23.78847 58.77188 35860 ft 479 kts 250°
2026-04-24 16:59 23.66773 58.45795 35837 ft 477 kts 250°
2026-04-24 17:00 23.62922 58.35865 35867 ft 473 kts 250°
2026-04-24 17:00 23.59001 58.26059 35855 ft 473 kts 246°
2026-04-24 17:01 23.53625 58.16989 35875 ft 475 kts 239°
2026-04-24 17:02 23.48041 58.08039 35863 ft 477 kts 239°
2026-04-24 17:02 23.44327 58.02019 35855 ft 480 kts 240°
2026-04-24 17:03 23.38719 57.92985 35888 ft 480 kts 240°
2026-04-24 17:04 23.35030 57.86975 35855 ft 480 kts 240°
2026-04-24 17:04 23.29465 57.77966 35859 ft 479 kts 239°
2026-04-24 17:05 23.25742 57.71969 35860 ft 476 kts 239°
2026-04-24 17:06 23.20184 57.63012 35846 ft 475 kts 240°
2026-04-24 17:06 23.14604 57.54053 35868 ft 477 kts 239°
2026-04-24 17:07 23.10902 57.48113 35848 ft 477 kts 239°
2026-04-24 17:08 23.03453 57.36170 35857 ft 478 kts 239°
2026-04-24 17:08 22.99771 57.30163 35883 ft 477 kts 243°
2026-04-24 17:09 22.93714 57.17425 35887 ft 474 kts 246°
2026-04-24 17:10 22.87657 57.04683 35887 ft 476 kts 246°
2026-04-24 17:12 22.75440 56.79220 35882 ft 475 kts 246°
2026-04-24 18:54 23.24783 43.67195 32026 ft 459 kts 284°
2026-04-24 18:55 23.27773 43.57293 32026 ft 459 kts 284°
2026-04-24 18:56 23.29764 43.50675 32033 ft 461 kts 284°
2026-04-24 18:56 23.31753 43.44051 32029 ft 460 kts 284°
2026-04-24 18:57 23.33737 43.37416 32029 ft 460 kts 284°
2026-04-24 18:57 23.35383 43.31910 32028 ft 460 kts 284°
2026-04-24 18:58 23.37366 43.25292 32030 ft 459 kts 284°
2026-04-24 18:58 23.39338 43.18678 32026 ft 460 kts 284°
2026-04-24 18:59 23.41312 43.12049 32027 ft 460 kts 284°
2026-04-24 18:59 23.43280 43.05421 32035 ft 460 kts 284°
2026-04-24 19:00 23.45232 42.98790 32031 ft 459 kts 284°
2026-04-24 19:00 23.47172 42.92190 32032 ft 461 kts 284°
2026-04-24 19:01 23.49130 42.85530 32029 ft 462 kts 284°
2026-04-24 19:01 23.51090 42.78846 32027 ft 463 kts 284°
2026-04-24 19:02 23.53053 42.72165 32026 ft 463 kts 284°
2026-04-24 19:02 23.55029 42.65474 32035 ft 464 kts 284°
2026-04-24 19:03 23.57011 42.58765 32025 ft 465 kts 284°
2026-04-24 19:03 23.58970 42.52104 32039 ft 465 kts 284°
2026-04-24 19:04 23.60942 42.45389 32033 ft 466 kts 284°
2026-04-24 19:04 23.62918 42.38668 32028 ft 464 kts 284°
2026-04-24 19:05 23.64876 42.31962 32039 ft 465 kts 284°
2026-04-24 19:05 23.66833 42.25241 32040 ft 464 kts 284°
2026-04-24 19:06 23.68746 42.18594 32043 ft 466 kts 284°
2026-04-24 19:06 23.70687 42.11845 32028 ft 467 kts 284°
2026-04-24 19:07 23.72618 42.05108 32031 ft 468 kts 284°
2026-04-24 19:07 23.74556 41.98338 32026 ft 467 kts 284°
2026-04-24 19:08 23.76529 41.91568 32024 ft 467 kts 284°
2026-04-24 19:08 23.78498 41.84808 32033 ft 468 kts 284°
2026-04-24 19:09 23.80456 41.78054 32036 ft 465 kts 284°
2026-04-24 19:09 23.82373 41.71411 32043 ft 467 kts 284°
2026-04-24 19:10 23.84271 41.64780 32035 ft 467 kts 284°
2026-04-24 19:10 23.86216 41.58002 32023 ft 467 kts 284°
2026-04-24 19:11 23.88149 41.51231 32026 ft 466 kts 283°
2026-04-24 19:11 23.90079 41.44475 32041 ft 465 kts 283°
2026-04-24 19:12 23.91997 41.37722 32034 ft 466 kts 283°
2026-04-24 19:12 23.93918 41.30965 32024 ft 466 kts 283°
2026-04-24 19:13 23.95501 41.25382 32029 ft 467 kts 283°
2026-04-24 19:13 23.97744 41.17457 32024 ft 466 kts 283°
2026-04-24 19:14 23.99659 41.10678 32010 ft 465 kts 283°
2026-04-24 19:14 24.01554 41.03931 31564 ft 468 kts 282°
2026-04-24 19:14 24.02519 41.00506 30571 ft 474 kts 282°
2026-04-24 19:15 24.03488 40.97067 29823 ft 469 kts 282°
2026-04-24 19:15 24.04443 40.93672 29066 ft 465 kts 282°
2026-04-24 19:15 24.05389 40.90310 28308 ft 460 kts 282°
2026-04-24 19:15 24.06326 40.86984 27581 ft 456 kts 282°
2026-04-24 19:16 24.08158 40.80405 26143 ft 449 kts 282°
2026-04-24 19:16 24.09069 40.77156 25427 ft 445 kts 283°
2026-04-24 19:16 24.09970 40.73937 24731 ft 441 kts 283°
2026-04-24 19:17 24.10861 40.70736 24035 ft 437 kts 283°
2026-04-24 19:17 24.11741 40.67574 23356 ft 432 kts 283°
2026-04-24 19:17 24.12609 40.64431 22686 ft 429 kts 283°
2026-04-24 19:17 24.13476 40.61312 22007 ft 426 kts 283°
2026-04-24 19:18 24.14334 40.58229 21356 ft 422 kts 283°
2026-04-24 19:18 24.15185 40.55164 20700 ft 419 kts 283°
2026-04-24 19:18 24.16044 40.52133 20199 ft 407 kts 284°
2026-04-24 19:18 24.16625 40.49168 20002 ft 398 kts 272°
2026-04-24 19:19 24.16963 40.46143 19502 ft 404 kts 278°
2026-04-24 19:19 24.17981 40.43187 19055 ft 415 kts 295°
2026-04-24 19:19 24.19676 40.40673 18749 ft 416 kts 307°
2026-04-24 19:19 24.21496 40.38319 18432 ft 392 kts 303°
2026-04-24 19:20 24.23303 40.35994 18116 ft 416 kts 309°
2026-04-24 19:20 24.25509 40.33912 17797 ft 429 kts 321°
2026-04-24 19:20 24.27950 40.32059 17444 ft 425 kts 318°
2026-04-24 19:20 24.30206 40.30034 17154 ft 414 kts 313°
2026-04-24 19:21 24.32319 40.27917 16825 ft 410 kts 312°
2026-04-24 19:21 24.34414 40.25753 16501 ft 406 kts 311°
2026-04-24 19:21 24.36429 40.23651 16188 ft 404 kts 311°
2026-04-24 19:21 24.38469 40.21533 15869 ft 405 kts 312°
2026-04-24 19:22 24.39823 40.20131 15661 ft 403 kts 312°
2026-04-24 19:22 24.42541 40.17331 15266 ft 397 kts 313°
2026-04-24 19:22 24.44562 40.15280 14973 ft 396 kts 313°
2026-04-24 19:22 24.46577 40.13239 14672 ft 393 kts 313°
2026-04-24 19:23 24.48580 40.11204 14387 ft 392 kts 313°
2026-04-24 19:23 24.50578 40.09171 14080 ft 390 kts 313°
2026-04-24 19:23 24.52564 40.07155 13775 ft 387 kts 313°
2026-04-24 19:23 24.54535 40.05152 13486 ft 385 kts 313°
2026-04-24 19:24 24.56495 40.03157 13189 ft 382 kts 313°
2026-04-24 19:24 24.58445 40.01172 12901 ft 382 kts 313°
2026-04-24 19:24 24.60362 39.99223 12609 ft 378 kts 313°
2026-04-24 19:24 24.62310 39.97236 12320 ft 378 kts 313°
2026-04-24 19:25 24.64232 39.95272 12020 ft 376 kts 313°
2026-04-24 19:25 24.66148 39.93306 11735 ft 373 kts 313°
2026-04-24 19:25 24.67996 39.91433 11415 ft 345 kts 314°
2026-04-24 19:25 24.69696 39.89716 11149 ft 316 kts 313°
2026-04-24 19:26 24.71281 39.88107 10927 ft 307 kts 313°
2026-04-24 19:26 24.72829 39.86524 10730 ft 300 kts 313°
2026-04-24 19:26 24.74297 39.85026 10624 ft 284 kts 314°
2026-04-24 19:26 24.75702 39.83602 10501 ft 266 kts 313°
2026-04-24 19:27 24.77022 39.82243 10193 ft 256 kts 313°
2026-04-24 19:27 24.78353 39.80957 9889 ft 246 kts 316°
2026-04-24 19:27 24.79613 39.79815 9693 ft 229 kts 317°
2026-04-24 19:27 24.80854 39.78703 9586 ft 231 kts 317°
2026-04-24 19:28 24.82093 39.77580 9381 ft 233 kts 317°
2026-04-24 19:28 24.83317 39.76472 9172 ft 223 kts 317°
2026-04-24 19:28 24.84492 39.75400 9055 ft 218 kts 317°
2026-04-24 19:28 24.85663 39.74321 8883 ft 221 kts 314°
2026-04-24 19:29 24.87266 39.71420 8199 ft 220 kts 295°
2026-04-24 19:29 24.87844 39.69900 7824 ft 211 kts 278°
2026-04-24 19:29 24.87898 39.68301 7377 ft 211 kts 265°
2026-04-24 19:30 24.87735 39.66684 6864 ft 212 kts 249°
2026-04-24 19:30 24.86814 39.65565 6760 ft 199 kts 202°
2026-04-24 19:30 24.85425 39.65356 6658 ft 205 kts 181°
2026-04-24 19:30 24.83987 39.65347 6514 ft 208 kts 181°
2026-04-24 19:31 24.82554 39.65338 6368 ft 205 kts 180°
2026-04-24 19:31 24.81153 39.65350 6291 ft 203 kts 178°
2026-04-24 19:31 24.79743 39.65579 6203 ft 204 kts 166°
2026-04-24 19:31 24.78358 39.65945 6208 ft 205 kts 171°
2026-04-24 19:32 24.76938 39.66221 5942 ft 209 kts 171°
2026-04-24 19:32 24.75519 39.66511 5659 ft 204 kts 169°
2026-04-24 19:32 24.74137 39.66805 5386 ft 201 kts 169°
2026-04-24 19:32 24.72756 39.67102 5128 ft 202 kts 169°
2026-04-24 19:33 24.71374 39.67400 4863 ft 201 kts 168°
2026-04-24 19:33 24.70022 39.67687 4605 ft 192 kts 169°
2026-04-24 19:33 24.68751 39.67958 4326 ft 180 kts 169°
2026-04-24 19:33 24.67558 39.68216 4101 ft 171 kts 170°
2026-04-24 19:34 24.66389 39.68463 3892 ft 174 kts 169°
2026-04-24 19:34 24.65219 39.68713 3679 ft 172 kts 169°
2026-04-24 19:34 24.64053 39.68965 3454 ft 171 kts 169°
2026-04-24 19:34 24.62918 39.69207 3197 ft 160 kts 170°
2026-04-24 19:35 24.61846 39.69435 2990 ft 156 kts 169°
2026-04-24 19:35 24.60772 39.69667 2772 ft 155 kts 169°
2026-04-24 19:35 24.59708 39.69896 2579 ft 154 kts 170°
2026-04-24 19:35 24.58659 39.70117 2388 ft 153 kts 169°
2026-04-24 19:36 24.57614 39.70342 2160 ft 154 kts 170°
2026-04-24 19:36 24.56608 39.70549 2121 ft 136 kts 169°
2026-04-24 19:36 24.55820 39.70721 2115 ft 90 kts 169°
2026-04-24 19:36 24.55399 39.70820 2115 ft 41 kts 156°
2026-04-24 19:37 24.55255 39.70923 2115 ft 13 kts 139°
2026-04-24 19:37 24.55217 39.70983 2113 ft 6 kts 108°
2026-04-24 19:37 24.55217 39.71034 2112 ft 7 kts 74°
2026-04-24 19:37 24.55229 39.71093 2111 ft 9 kts 81°
2026-04-24 19:38 24.55234 39.71122 2110 ft 11 kts 80°
2026-04-24 19:38 24.55256 39.71192 2110 ft 8 kts 49°
2026-04-24 19:38 24.55281 39.71207 2110 ft 3 kts 12°
2026-04-24 19:38 24.55303 39.71209 2110 ft 3 kts
2026-04-24 19:39 24.55335 39.71207 2110 ft 7 kts 354°
2026-04-24 19:39 24.55391 39.71198 2110 ft 6 kts 350°
2026-04-24 19:39 24.55423 39.71191 2110 ft 4 kts 348°
2026-04-24 19:39 24.55452 39.71184 2110 ft 5 kts 348°
2026-04-24 19:40 24.55484 39.71177 2110 ft 5 kts 348°
2026-04-24 19:40 24.55509 39.71176 2111 ft 2 kts 13°
2026-04-24 19:40 24.55518 39.71185 2111 ft 2 kts 47°
2026-04-24 19:40 24.55524 39.71197 2110 ft 2 kts 62°
2026-04-24 19:41 24.55531 39.71215 2110 ft 3 kts 69°
2026-04-24 19:41 24.55535 39.71228 2110 ft 1 kts 74°
2026-04-24 19:41 24.55536 39.71236 2110 ft 0 kts 75°
2026-04-24 19:41 24.55537 39.71236 2110 ft 0 kts 75°
2026-04-24 19:42 24.55538 39.71241 2110 ft 1 kts 75°
2026-04-24 19:42 24.55540 39.71252 2110 ft 0 kts 77°
2026-04-24 19:42 24.55540 39.71253 2110 ft 0 kts 77°
2026-04-24 19:42 24.55540 39.71254 2110 ft 0 kts 77°